Year,Month,Day,Hour,Minute,Value (Times are PST for windgust in km/hr)
2013,09,29,00,00,6.40
2013,09,29,00,01,6.40
2013,09,29,00,02,1.60
2013,09,29,00,03,6.40
2013,09,29,00,04,3.20
2013,09,29,00,05,1.60
2013,09,29,00,06,9.60
2013,09,29,00,07,11.30
2013,09,29,00,08,9.60
2013,09,29,00,09,14.50
2013,09,29,00,10,8.10
2013,09,29,00,11,6.40
2013,09,29,00,12,8.10
2013,09,29,00,13,16.10
2013,09,29,00,14,9.60
2013,09,29,00,15,8.10
2013,09,29,00,16,6.40
2013,09,29,00,17,14.50
2013,09,29,00,18,6.40
2013,09,29,00,19,9.60
2013,09,29,00,20,9.60
2013,09,29,00,21,9.60
2013,09,29,00,22,6.40
2013,09,29,00,23,11.30
2013,09,29,00,24,8.10
2013,09,29,00,25,9.60
2013,09,29,00,26,11.30
2013,09,29,00,27,4.80
2013,09,29,00,28,8.10
2013,09,29,00,29,11.30
2013,09,29,00,30,8.10
2013,09,29,00,31,19.30
2013,09,29,00,32,17.70
2013,09,29,00,33,16.10
2013,09,29,00,34,14.50
2013,09,29,00,35,19.30
2013,09,29,00,36,17.70
2013,09,29,00,37,17.70
2013,09,29,00,38,17.70
2013,09,29,00,39,11.30
2013,09,29,00,40,11.30
2013,09,29,00,41,8.10
2013,09,29,00,42,6.40
2013,09,29,00,43,4.80
2013,09,29,00,44,3.20
2013,09,29,00,45,4.80
2013,09,29,00,46,3.20
2013,09,29,00,47,6.40
2013,09,29,00,48,9.60
2013,09,29,00,49,8.10
2013,09,29,00,50,6.40
2013,09,29,00,51,6.40
2013,09,29,00,52,3.20
2013,09,29,00,53,8.10
2013,09,29,00,54,4.80
2013,09,29,00,55,3.20
2013,09,29,00,56,1.60
2013,09,29,00,57,4.80
2013,09,29,00,58,3.20
2013,09,29,00,59,6.40
2013,09,29,01,00,8.10
2013,09,29,01,01,8.10
2013,09,29,01,02,8.10
2013,09,29,01,03,6.40
2013,09,29,01,04,4.80
2013,09,29,01,05,8.10
2013,09,29,01,06,6.40
2013,09,29,01,07,6.40
2013,09,29,01,08,8.10
2013,09,29,01,09,14.50
2013,09,29,01,10,6.40
2013,09,29,01,11,9.60
2013,09,29,01,12,16.10
2013,09,29,01,13,11.30
2013,09,29,01,14,6.40
2013,09,29,01,15,8.10
2013,09,29,01,16,4.80
2013,09,29,01,17,4.80
2013,09,29,01,18,9.60
2013,09,29,01,19,9.60
2013,09,29,01,20,8.10
2013,09,29,01,21,4.80
2013,09,29,01,22,8.10
2013,09,29,01,23,8.10
2013,09,29,01,24,14.50
2013,09,29,01,25,11.30
2013,09,29,01,26,9.60
2013,09,29,01,27,14.50
2013,09,29,01,28,6.40
2013,09,29,01,29,4.80
2013,09,29,01,30,4.80
2013,09,29,01,31,8.10
2013,09,29,01,32,9.60
2013,09,29,01,33,8.10
2013,09,29,01,34,9.60
2013,09,29,01,35,6.40
2013,09,29,01,36,8.10
2013,09,29,01,37,9.60
2013,09,29,01,38,1.60
2013,09,29,01,39,11.30
2013,09,29,01,40,16.10
2013,09,29,01,41,9.60
2013,09,29,01,42,11.30
2013,09,29,01,43,8.10
2013,09,29,01,44,6.40
2013,09,29,01,45,9.60
2013,09,29,01,46,4.80
2013,09,29,01,47,8.10
2013,09,29,01,48,3.20
2013,09,29,01,49,6.40
2013,09,29,01,50,4.80
2013,09,29,01,51,4.80
2013,09,29,01,52,8.10
2013,09,29,01,53,6.40
2013,09,29,01,54,4.80
2013,09,29,01,56,1.60
2013,09,29,01,57,1.60
2013,09,29,01,58,3.20
2013,09,29,01,59,4.80
2013,09,29,02,00,4.80
2013,09,29,02,01,4.80
2013,09,29,02,04,4.80
2013,09,29,02,05,4.80
2013,09,29,02,07,3.20
2013,09,29,02,08,4.80
2013,09,29,02,09,8.10
2013,09,29,02,10,9.60
2013,09,29,02,11,9.60
2013,09,29,02,12,9.60
2013,09,29,02,13,3.20
2013,09,29,02,14,4.80
2013,09,29,02,15,3.20
2013,09,29,02,16,4.80
2013,09,29,02,17,6.40
2013,09,29,02,18,4.80
2013,09,29,02,19,3.20
2013,09,29,02,20,9.60
2013,09,29,02,21,4.80
2013,09,29,02,22,4.80
2013,09,29,02,23,4.80
2013,09,29,02,25,6.40
2013,09,29,02,27,1.60
2013,09,29,02,28,1.60
2013,09,29,02,29,3.20
2013,09,29,02,30,1.60
2013,09,29,02,32,3.20
2013,09,29,02,33,1.60
2013,09,29,02,35,4.80
2013,09,29,02,36,6.40
2013,09,29,02,37,6.40
2013,09,29,02,38,8.10
2013,09,29,02,39,8.10
2013,09,29,02,40,8.10
2013,09,29,02,41,4.80
2013,09,29,02,42,3.20
2013,09,29,02,43,4.80
2013,09,29,02,44,9.60
2013,09,29,02,45,6.40
2013,09,29,02,46,6.40
2013,09,29,02,47,6.40
2013,09,29,02,48,4.80
2013,09,29,02,49,4.80
2013,09,29,02,50,6.40
2013,09,29,02,52,3.20
2013,09,29,02,53,3.20
2013,09,29,02,54,14.50
2013,09,29,02,55,19.30
2013,09,29,02,56,11.30
2013,09,29,02,57,11.30
2013,09,29,02,58,12.90
2013,09,29,02,59,9.60
2013,09,29,03,00,6.40
2013,09,29,03,01,3.20
2013,09,29,03,02,6.40
2013,09,29,03,03,6.40
2013,09,29,03,04,11.30
2013,09,29,03,05,3.20
2013,09,29,03,06,9.60
2013,09,29,03,07,4.80
2013,09,29,03,08,6.40
2013,09,29,03,09,1.60
2013,09,29,03,11,1.60
2013,09,29,03,12,3.20
2013,09,29,03,13,4.80
2013,09,29,03,14,4.80
2013,09,29,03,15,1.60
2013,09,29,03,16,4.80
2013,09,29,03,17,4.80
2013,09,29,03,18,3.20
2013,09,29,03,19,6.40
2013,09,29,03,20,6.40
2013,09,29,03,21,1.60
2013,09,29,03,22,1.60
2013,09,29,03,23,1.60
2013,09,29,03,24,4.80
2013,09,29,03,25,3.20
2013,09,29,03,26,1.60
2013,09,29,03,27,3.20
2013,09,29,03,28,6.40
2013,09,29,03,29,11.30
2013,09,29,03,30,8.10
2013,09,29,03,31,3.20
2013,09,29,03,32,3.20
2013,09,29,03,33,1.60
2013,09,29,03,34,4.80
2013,09,29,03,35,4.80
2013,09,29,03,36,11.30
2013,09,29,03,37,12.90
2013,09,29,03,38,14.50
2013,09,29,03,39,9.60
2013,09,29,03,40,11.30
2013,09,29,03,41,12.90
2013,09,29,03,42,17.70
2013,09,29,03,43,8.10
2013,09,29,03,44,20.90
2013,09,29,03,45,9.60
2013,09,29,03,46,9.60
2013,09,29,03,47,9.60
2013,09,29,03,48,11.30
2013,09,29,03,49,11.30
2013,09,29,03,50,4.80
2013,09,29,03,51,9.60
2013,09,29,03,52,6.40
2013,09,29,03,53,4.80
2013,09,29,03,54,4.80
2013,09,29,03,55,9.60
2013,09,29,03,56,9.60
2013,09,29,03,57,6.40
2013,09,29,03,58,4.80
2013,09,29,03,59,1.60
2013,09,29,04,00,3.20
2013,09,29,04,01,4.80
2013,09,29,04,03,4.80
2013,09,29,04,04,3.20
2013,09,29,04,05,1.60
2013,09,29,04,09,3.20
2013,09,29,04,10,1.60
2013,09,29,04,11,3.20
2013,09,29,04,16,3.20
2013,09,29,04,17,1.60
2013,09,29,04,18,1.60
2013,09,29,04,19,3.20
2013,09,29,04,20,1.60
2013,09,29,04,23,1.60
2013,09,29,04,24,4.80
2013,09,29,04,26,3.20
2013,09,29,04,27,1.60
2013,09,29,04,29,1.60
2013,09,29,04,30,3.20
2013,09,29,04,31,3.20
2013,09,29,04,32,4.80
2013,09,29,04,33,1.60
2013,09,29,04,35,6.40
2013,09,29,04,36,4.80
2013,09,29,04,37,3.20
2013,09,29,04,39,9.60
2013,09,29,04,40,4.80
2013,09,29,04,41,4.80
2013,09,29,04,42,3.20
2013,09,29,04,43,6.40
2013,09,29,04,45,3.20
2013,09,29,04,48,1.60
2013,09,29,04,49,3.20
2013,09,29,04,50,4.80
2013,09,29,04,51,1.60
2013,09,29,04,52,4.80
2013,09,29,04,53,3.20
2013,09,29,04,54,4.80
2013,09,29,04,55,9.60
2013,09,29,04,56,9.60
2013,09,29,04,57,6.40
2013,09,29,04,58,4.80
2013,09,29,04,59,3.20
2013,09,29,05,00,1.60
2013,09,29,05,02,8.10
2013,09,29,05,03,8.10
2013,09,29,05,04,6.40
2013,09,29,05,05,8.10
2013,09,29,05,06,6.40
2013,09,29,05,07,6.40
2013,09,29,05,08,8.10
2013,09,29,05,09,3.20
2013,09,29,05,10,11.30
2013,09,29,05,11,8.10
2013,09,29,05,12,3.20
2013,09,29,05,13,11.30
2013,09,29,05,14,6.40
2013,09,29,05,15,4.80
2013,09,29,05,16,11.30
2013,09,29,05,17,8.10
2013,09,29,05,18,8.10
2013,09,29,05,19,6.40
2013,09,29,05,20,3.20
2013,09,29,05,21,1.60
2013,09,29,05,22,8.10
2013,09,29,05,23,9.60
2013,09,29,05,24,4.80
2013,09,29,05,25,6.40
2013,09,29,05,26,9.60
2013,09,29,05,27,6.40
2013,09,29,05,28,9.60
2013,09,29,05,29,16.10
2013,09,29,05,30,17.70
2013,09,29,05,31,8.10
2013,09,29,05,32,1.60
2013,09,29,05,33,4.80
2013,09,29,05,34,3.20
2013,09,29,05,35,3.20
2013,09,29,05,36,3.20
2013,09,29,05,37,8.10
2013,09,29,05,38,4.80
2013,09,29,05,45,1.60
2013,09,29,05,46,3.20
2013,09,29,05,47,3.20
2013,09,29,05,48,4.80
2013,09,29,05,49,3.20
2013,09,29,05,50,1.60
2013,09,29,05,51,3.20
2013,09,29,05,52,3.20
2013,09,29,05,53,3.20
2013,09,29,05,54,4.80
2013,09,29,05,55,4.80
2013,09,29,05,56,3.20
2013,09,29,05,57,4.80
2013,09,29,05,58,3.20
2013,09,29,05,59,3.20
2013,09,29,06,00,4.80
2013,09,29,06,01,3.20
2013,09,29,06,02,3.20
2013,09,29,06,03,6.40
2013,09,29,06,04,4.80
2013,09,29,06,05,4.80
2013,09,29,06,06,8.10
2013,09,29,06,08,3.20
2013,09,29,06,09,1.60
2013,09,29,06,14,3.20
2013,09,29,06,15,1.60
2013,09,29,06,16,1.60
2013,09,29,06,17,1.60
2013,09,29,06,18,3.20
2013,09,29,06,19,1.60
2013,09,29,06,20,1.60
2013,09,29,06,21,3.20
2013,09,29,06,22,14.50
2013,09,29,06,23,8.10
2013,09,29,06,24,11.30
2013,09,29,06,25,8.10
2013,09,29,06,26,11.30
2013,09,29,06,27,9.60
2013,09,29,06,28,16.10
2013,09,29,06,29,9.60
2013,09,29,06,30,6.40
2013,09,29,06,32,4.80
2013,09,29,06,33,3.20
2013,09,29,06,34,6.40
2013,09,29,06,35,8.10
2013,09,29,06,36,4.80
2013,09,29,06,37,1.60
2013,09,29,06,38,4.80
2013,09,29,06,39,4.80
2013,09,29,06,40,4.80
2013,09,29,06,41,1.60
2013,09,29,06,42,1.60
2013,09,29,06,43,1.60
2013,09,29,06,46,1.60
2013,09,29,06,47,1.60
2013,09,29,06,48,1.60
2013,09,29,06,49,1.60
2013,09,29,06,50,1.60
2013,09,29,06,51,3.20
2013,09,29,06,52,3.20
2013,09,29,06,54,1.60
2013,09,29,07,03,1.60
2013,09,29,07,06,1.60
2013,09,29,07,07,3.20
2013,09,29,07,08,1.60
2013,09,29,07,09,1.60
2013,09,29,07,10,1.60
2013,09,29,07,11,1.60
2013,09,29,07,12,3.20
2013,09,29,07,13,3.20
2013,09,29,07,14,3.20
2013,09,29,07,21,3.20
2013,09,29,07,22,3.20
2013,09,29,07,23,1.60
2013,09,29,07,24,4.80
2013,09,29,07,25,6.40
2013,09,29,07,27,3.20
2013,09,29,07,28,3.20
2013,09,29,07,31,3.20
2013,09,29,07,32,4.80
2013,09,29,07,34,1.60
2013,09,29,07,35,3.20
2013,09,29,07,38,1.60
2013,09,29,07,40,1.60
2013,09,29,07,42,1.60
2013,09,29,07,44,1.60
2013,09,29,07,46,1.60
2013,09,29,07,47,1.60
2013,09,29,07,48,1.60
2013,09,29,07,49,4.80
2013,09,29,07,50,9.60
2013,09,29,07,51,6.40
2013,09,29,07,52,6.40
2013,09,29,07,53,3.20
2013,09,29,07,54,4.80
2013,09,29,07,55,3.20
2013,09,29,07,56,4.80
2013,09,29,07,57,6.40
2013,09,29,07,58,1.60
2013,09,29,07,59,1.60
2013,09,29,08,01,1.60
2013,09,29,08,04,1.60
2013,09,29,08,05,3.20
2013,09,29,08,06,4.80
2013,09,29,08,07,3.20
2013,09,29,08,08,6.40
2013,09,29,08,09,3.20
2013,09,29,08,10,4.80
2013,09,29,08,11,1.60
2013,09,29,08,12,3.20
2013,09,29,08,14,3.20
2013,09,29,08,15,11.30
2013,09,29,08,16,9.60
2013,09,29,08,18,1.60
2013,09,29,08,19,8.10
2013,09,29,08,20,9.60
2013,09,29,08,21,8.10
2013,09,29,08,22,6.40
2013,09,29,08,23,8.10
2013,09,29,08,24,6.40
2013,09,29,08,25,19.30
2013,09,29,08,26,17.70
2013,09,29,08,27,12.90
2013,09,29,08,28,8.10
2013,09,29,08,29,4.80
2013,09,29,08,30,6.40
2013,09,29,08,31,1.60
2013,09,29,08,32,3.20
2013,09,29,08,33,3.20
2013,09,29,08,37,1.60
2013,09,29,08,38,4.80
2013,09,29,08,39,6.40
2013,09,29,08,40,3.20
2013,09,29,08,41,1.60
2013,09,29,08,42,1.60
2013,09,29,08,43,3.20
2013,09,29,08,45,3.20
2013,09,29,08,47,4.80
2013,09,29,08,48,4.80
2013,09,29,08,49,4.80
2013,09,29,08,50,4.80
2013,09,29,08,51,14.50
2013,09,29,08,52,19.30
2013,09,29,08,53,16.10
2013,09,29,08,54,8.10
2013,09,29,08,55,8.10
2013,09,29,08,56,4.80
2013,09,29,08,57,4.80
2013,09,29,08,58,1.60
2013,09,29,08,59,4.80
2013,09,29,09,00,4.80
2013,09,29,09,01,4.80
2013,09,29,09,02,6.40
2013,09,29,09,03,8.10
2013,09,29,09,04,1.60
2013,09,29,09,05,3.20
2013,09,29,09,06,4.80
2013,09,29,09,07,4.80
2013,09,29,09,08,6.40
2013,09,29,09,09,3.20
2013,09,29,09,10,4.80
2013,09,29,09,11,8.10
2013,09,29,09,12,3.20
2013,09,29,09,13,16.10
2013,09,29,09,14,16.10
2013,09,29,09,15,9.60
2013,09,29,09,16,14.50
2013,09,29,09,17,9.60
2013,09,29,09,18,9.60
2013,09,29,09,19,9.60
2013,09,29,09,20,12.90
2013,09,29,09,21,17.70
2013,09,29,09,22,20.90
2013,09,29,09,23,11.30
2013,09,29,09,24,9.60
2013,09,29,09,25,8.10
2013,09,29,09,26,3.20
2013,09,29,09,27,6.40
2013,09,29,09,28,9.60
2013,09,29,09,29,8.10
2013,09,29,09,30,9.60
2013,09,29,09,31,8.10
2013,09,29,09,32,11.30
2013,09,29,09,33,11.30
2013,09,29,09,34,12.90
2013,09,29,09,35,11.30
2013,09,29,09,36,16.10
2013,09,29,09,37,8.10
2013,09,29,09,38,11.30
2013,09,29,09,39,20.90
2013,09,29,09,40,17.70
2013,09,29,09,41,11.30
2013,09,29,09,42,14.50
2013,09,29,09,43,16.10
2013,09,29,09,44,17.70
2013,09,29,09,45,16.10
2013,09,29,09,46,16.10
2013,09,29,09,47,8.10
2013,09,29,09,48,9.60
2013,09,29,09,49,16.10
2013,09,29,09,50,17.70
2013,09,29,09,51,16.10
2013,09,29,09,52,14.50
2013,09,29,09,53,11.30
2013,09,29,09,54,9.60
2013,09,29,09,55,16.10
2013,09,29,09,56,11.30
2013,09,29,09,57,6.40
2013,09,29,09,58,6.40
2013,09,29,09,59,11.30
2013,09,29,10,00,8.10
2013,09,29,10,01,8.10
2013,09,29,10,02,6.40
2013,09,29,10,03,8.10
2013,09,29,10,04,8.10
2013,09,29,10,05,6.40
2013,09,29,10,06,9.60
2013,09,29,10,07,9.60
2013,09,29,10,08,11.30
2013,09,29,10,09,11.30
2013,09,29,10,10,11.30
2013,09,29,10,11,6.40
2013,09,29,10,12,6.40
2013,09,29,10,13,11.30
2013,09,29,10,14,11.30
2013,09,29,10,15,16.10
2013,09,29,10,16,9.60
2013,09,29,10,17,16.10
2013,09,29,10,18,11.30
2013,09,29,10,19,17.70
2013,09,29,10,20,14.50
2013,09,29,10,21,14.50
2013,09,29,10,22,20.90
2013,09,29,10,23,8.10
2013,09,29,10,24,9.60
2013,09,29,10,25,11.30
2013,09,29,10,26,9.60
2013,09,29,10,27,4.80
2013,09,29,10,28,4.80
2013,09,29,10,29,6.40
2013,09,29,10,30,6.40
2013,09,29,10,31,4.80
2013,09,29,10,32,6.40
2013,09,29,10,33,4.80
2013,09,29,10,34,4.80
2013,09,29,10,35,6.40
2013,09,29,10,36,8.10
2013,09,29,10,37,4.80
2013,09,29,10,38,3.20
2013,09,29,10,39,3.20
2013,09,29,10,40,3.20
2013,09,29,10,41,3.20
2013,09,29,10,42,8.10
2013,09,29,10,43,4.80
2013,09,29,10,44,3.20
2013,09,29,10,45,4.80
2013,09,29,10,46,6.40
2013,09,29,10,47,3.20
2013,09,29,10,48,4.80
2013,09,29,10,49,4.80
2013,09,29,10,50,8.10
2013,09,29,10,51,9.60
2013,09,29,10,52,16.10
2013,09,29,10,53,11.30
2013,09,29,10,54,8.10
2013,09,29,10,55,6.40
2013,09,29,10,56,4.80
2013,09,29,10,57,6.40
2013,09,29,10,58,6.40
2013,09,29,10,59,3.20
2013,09,29,11,00,8.10
2013,09,29,11,01,8.10
2013,09,29,11,02,12.90
2013,09,29,11,03,8.10
2013,09,29,11,04,4.80
2013,09,29,11,05,3.20
2013,09,29,11,06,6.40
2013,09,29,11,07,3.20
2013,09,29,11,08,4.80
2013,09,29,11,09,4.80
2013,09,29,11,10,9.60
2013,09,29,11,11,3.20
2013,09,29,11,12,4.80
2013,09,29,11,13,4.80
2013,09,29,11,14,4.80
2013,09,29,11,15,4.80
2013,09,29,11,16,11.30
2013,09,29,11,17,14.50
2013,09,29,11,18,19.30
2013,09,29,11,19,14.50
2013,09,29,11,20,9.60
2013,09,29,11,21,4.80
2013,09,29,11,22,3.20
2013,09,29,11,23,8.10
2013,09,29,11,24,11.30
2013,09,29,11,25,12.90
2013,09,29,11,26,24.20
2013,09,29,11,27,9.60
2013,09,29,11,28,11.30
2013,09,29,11,29,19.30
2013,09,29,11,30,9.60
2013,09,29,11,31,16.10
2013,09,29,11,32,11.30
2013,09,29,11,33,6.40
2013,09,29,11,34,9.60
2013,09,29,11,35,9.60
2013,09,29,11,36,11.30
2013,09,29,11,37,8.10
2013,09,29,11,38,9.60
2013,09,29,11,39,11.30
2013,09,29,11,40,14.50
2013,09,29,11,41,14.50
2013,09,29,11,42,14.50
2013,09,29,11,43,9.60
2013,09,29,11,44,9.60
2013,09,29,11,45,9.60
2013,09,29,11,46,8.10
2013,09,29,11,47,4.80
2013,09,29,11,48,8.10
2013,09,29,11,49,9.60
2013,09,29,11,50,9.60
2013,09,29,11,51,9.60
2013,09,29,11,52,8.10
2013,09,29,11,53,9.60
2013,09,29,11,54,4.80
2013,09,29,11,55,6.40
2013,09,29,11,56,11.30
2013,09,29,11,57,8.10
2013,09,29,11,58,14.50
2013,09,29,11,59,8.10
2013,09,29,12,00,9.60
2013,09,29,12,01,11.30
2013,09,29,12,02,9.60
2013,09,29,12,03,9.60
2013,09,29,12,04,14.50
2013,09,29,12,05,8.10
2013,09,29,12,06,8.10
2013,09,29,12,07,6.40
2013,09,29,12,08,16.10
2013,09,29,12,09,4.80
2013,09,29,12,10,8.10
2013,09,29,12,11,17.70
2013,09,29,12,12,16.10
2013,09,29,12,13,8.10
2013,09,29,12,14,9.60
2013,09,29,12,15,9.60
2013,09,29,12,16,8.10
2013,09,29,12,17,16.10
2013,09,29,12,18,9.60
2013,09,29,12,19,11.30
2013,09,29,12,20,4.80
2013,09,29,12,21,16.10
2013,09,29,12,22,17.70
2013,09,29,12,23,20.90
2013,09,29,12,24,16.10
2013,09,29,12,25,11.30
2013,09,29,12,26,9.60
2013,09,29,12,27,17.70
2013,09,29,12,28,12.90
2013,09,29,12,29,16.10
2013,09,29,12,30,14.50
2013,09,29,12,31,11.30
2013,09,29,12,32,14.50
2013,09,29,12,33,16.10
2013,09,29,12,34,9.60
2013,09,29,12,35,9.60
2013,09,29,12,36,17.70
2013,09,29,12,37,17.70
2013,09,29,12,38,25.70
2013,09,29,12,39,12.90
2013,09,29,12,40,24.20
2013,09,29,12,41,11.30
2013,09,29,12,42,11.30
2013,09,29,12,43,11.30
2013,09,29,12,44,17.70
2013,09,29,12,45,22.50
2013,09,29,12,46,14.50
2013,09,29,12,47,11.30
2013,09,29,12,48,14.50
2013,09,29,12,49,14.50
2013,09,29,12,50,17.70
2013,09,29,12,51,16.10
2013,09,29,12,52,11.30
2013,09,29,12,53,6.40
2013,09,29,12,54,6.40
2013,09,29,12,55,6.40
2013,09,29,12,56,16.10
2013,09,29,12,57,17.70
2013,09,29,12,58,8.10
2013,09,29,12,59,14.50
2013,09,29,13,00,11.30
2013,09,29,13,01,8.10
2013,09,29,13,02,4.80
2013,09,29,13,03,9.60
2013,09,29,13,04,9.60
2013,09,29,13,05,11.30
2013,09,29,13,06,11.30
2013,09,29,13,07,4.80
2013,09,29,13,08,6.40
2013,09,29,13,09,6.40
2013,09,29,13,10,6.40
2013,09,29,13,11,3.20
2013,09,29,13,12,4.80
2013,09,29,13,13,8.10
2013,09,29,13,14,8.10
2013,09,29,13,15,17.70
2013,09,29,13,16,4.80
2013,09,29,13,17,8.10
2013,09,29,13,18,6.40
2013,09,29,13,19,4.80
2013,09,29,13,20,8.10
2013,09,29,13,21,9.60
2013,09,29,13,22,9.60
2013,09,29,13,23,1.60
2013,09,29,13,24,1.60
2013,09,29,13,25,4.80
2013,09,29,13,26,4.80
2013,09,29,13,27,3.20
2013,09,29,13,28,3.20
2013,09,29,13,29,1.60
2013,09,29,13,30,1.60
2013,09,29,13,31,3.20
2013,09,29,13,32,4.80
2013,09,29,13,33,4.80
2013,09,29,13,34,3.20
2013,09,29,13,35,3.20
2013,09,29,13,36,4.80
2013,09,29,13,37,3.20
2013,09,29,13,38,3.20
2013,09,29,13,39,4.80
2013,09,29,13,40,4.80
2013,09,29,13,41,4.80
2013,09,29,13,42,4.80
2013,09,29,13,43,3.20
2013,09,29,13,44,3.20
2013,09,29,13,45,1.60
2013,09,29,13,46,3.20
2013,09,29,13,47,6.40
2013,09,29,13,48,4.80
2013,09,29,13,49,3.20
2013,09,29,13,50,3.20
2013,09,29,13,51,1.60
2013,09,29,13,52,4.80
2013,09,29,13,53,4.80
2013,09,29,13,54,1.60
2013,09,29,13,56,1.60
2013,09,29,13,57,3.20
2013,09,29,13,58,3.20
2013,09,29,13,59,3.20
2013,09,29,14,00,1.60
2013,09,29,14,01,1.60
2013,09,29,14,02,1.60
2013,09,29,14,03,1.60
2013,09,29,14,04,6.40
2013,09,29,14,05,3.20
2013,09,29,14,06,1.60
2013,09,29,14,07,3.20
2013,09,29,14,08,1.60
2013,09,29,14,09,1.60
2013,09,29,14,10,3.20
2013,09,29,14,11,3.20
2013,09,29,14,12,3.20
2013,09,29,14,13,3.20
2013,09,29,14,14,1.60
2013,09,29,14,15,3.20
2013,09,29,14,16,4.80
2013,09,29,14,17,4.80
2013,09,29,14,18,8.10
2013,09,29,14,19,8.10
2013,09,29,14,20,6.40
2013,09,29,14,21,6.40
2013,09,29,14,22,6.40
2013,09,29,14,23,6.40
2013,09,29,14,24,1.60
2013,09,29,14,25,1.60
2013,09,29,14,26,4.80
2013,09,29,14,27,3.20
2013,09,29,14,28,3.20
2013,09,29,14,29,4.80
2013,09,29,14,30,6.40
2013,09,29,14,31,6.40
2013,09,29,14,32,8.10
2013,09,29,14,33,4.80
2013,09,29,14,34,4.80
2013,09,29,14,35,3.20
2013,09,29,14,36,3.20
2013,09,29,14,37,4.80
2013,09,29,14,38,9.60
2013,09,29,14,39,4.80
2013,09,29,14,40,6.40
2013,09,29,14,41,8.10
2013,09,29,14,42,8.10
2013,09,29,14,43,14.50
2013,09,29,14,44,11.30
2013,09,29,14,45,6.40
2013,09,29,14,46,4.80
2013,09,29,14,47,11.30
2013,09,29,14,48,6.40
2013,09,29,14,49,8.10
2013,09,29,14,50,9.60
2013,09,29,14,51,3.20
2013,09,29,14,52,8.10
2013,09,29,14,53,3.20
2013,09,29,14,54,4.80
2013,09,29,14,55,9.60
2013,09,29,14,56,8.10
2013,09,29,14,57,8.10
2013,09,29,14,58,8.10
2013,09,29,14,59,1.60
2013,09,29,15,00,6.40
2013,09,29,15,01,3.20
2013,09,29,15,02,6.40
2013,09,29,15,03,8.10
2013,09,29,15,04,8.10
2013,09,29,15,05,9.60
2013,09,29,15,06,3.20
2013,09,29,15,07,4.80
2013,09,29,15,08,4.80
2013,09,29,15,09,3.20
2013,09,29,15,10,4.80
2013,09,29,15,11,6.40
2013,09,29,15,12,6.40
2013,09,29,15,13,4.80
2013,09,29,15,14,4.80
2013,09,29,15,15,4.80
2013,09,29,15,16,4.80
2013,09,29,15,17,6.40
2013,09,29,15,18,6.40
2013,09,29,15,19,4.80
2013,09,29,15,20,6.40
2013,09,29,15,21,3.20
2013,09,29,15,22,4.80
2013,09,29,15,23,4.80
2013,09,29,15,24,4.80
2013,09,29,15,25,3.20
2013,09,29,15,27,3.20
2013,09,29,15,28,3.20
2013,09,29,15,31,1.60
2013,09,29,15,32,1.60
2013,09,29,15,33,1.60
2013,09,29,15,34,3.20
2013,09,29,15,35,4.80
2013,09,29,15,36,3.20
2013,09,29,15,37,4.80
2013,09,29,15,38,1.60
2013,09,29,15,39,1.60
2013,09,29,15,40,1.60
2013,09,29,15,41,4.80
2013,09,29,15,42,4.80
2013,09,29,15,43,4.80
2013,09,29,15,44,1.60
2013,09,29,15,46,1.60
2013,09,29,15,49,1.60
2013,09,29,15,54,3.20
2013,09,29,15,55,4.80
2013,09,29,15,56,3.20
2013,09,29,15,57,3.20
2013,09,29,15,58,1.60
2013,09,29,16,03,3.20
2013,09,29,16,04,3.20
2013,09,29,16,05,3.20
2013,09,29,16,06,1.60
2013,09,29,16,07,1.60
2013,09,29,16,08,3.20
2013,09,29,16,09,1.60
2013,09,29,16,10,3.20
2013,09,29,16,11,3.20
2013,09,29,16,12,1.60
2013,09,29,16,13,3.20
2013,09,29,16,14,3.20
2013,09,29,16,15,4.80
2013,09,29,16,16,1.60
2013,09,29,16,17,1.60
2013,09,29,16,18,4.80
2013,09,29,16,19,4.80
2013,09,29,16,20,3.20
2013,09,29,16,21,8.10
2013,09,29,16,22,6.40
2013,09,29,16,23,6.40
2013,09,29,16,24,6.40
2013,09,29,16,25,8.10
2013,09,29,16,26,6.40
2013,09,29,16,27,3.20
2013,09,29,16,29,1.60
2013,09,29,16,30,3.20
2013,09,29,16,32,3.20
2013,09,29,16,33,9.60
2013,09,29,16,34,9.60
2013,09,29,16,35,9.60
2013,09,29,16,36,6.40
2013,09,29,16,37,16.10
2013,09,29,16,38,16.10
2013,09,29,16,39,9.60
2013,09,29,16,40,8.10
2013,09,29,16,41,16.10
2013,09,29,16,42,8.10
2013,09,29,16,43,11.30
2013,09,29,16,44,29.00
2013,09,29,16,45,11.30
2013,09,29,16,46,19.30
2013,09,29,16,47,20.90
2013,09,29,16,48,20.90
2013,09,29,16,49,29.00
2013,09,29,16,50,22.50
2013,09,29,16,51,22.50
2013,09,29,16,52,22.50
2013,09,29,16,53,25.70
2013,09,29,16,54,19.30
2013,09,29,16,55,14.50
2013,09,29,16,56,14.50
2013,09,29,16,57,16.10
2013,09,29,16,58,27.40
2013,09,29,16,59,20.90
2013,09,29,17,00,22.50
2013,09,29,17,01,11.30
2013,09,29,17,02,9.60
2013,09,29,17,03,22.50
2013,09,29,17,04,14.50
2013,09,29,17,05,19.30
2013,09,29,17,06,19.30
2013,09,29,17,07,16.10
2013,09,29,17,08,27.40
2013,09,29,17,09,20.90
2013,09,29,17,10,11.30
2013,09,29,17,11,24.20
2013,09,29,17,12,20.90
2013,09,29,17,13,16.10
2013,09,29,17,14,29.00
2013,09,29,17,15,20.90
2013,09,29,17,16,24.20
2013,09,29,17,17,11.30
2013,09,29,17,18,14.50
2013,09,29,17,19,11.30
2013,09,29,17,20,20.90
2013,09,29,17,21,25.70
2013,09,29,17,22,24.20
2013,09,29,17,23,20.90
2013,09,29,17,24,25.70
2013,09,29,17,25,22.50
2013,09,29,17,26,29.00
2013,09,29,17,27,25.70
2013,09,29,17,28,16.10
2013,09,29,17,29,17.70
2013,09,29,17,30,27.40
2013,09,29,17,31,33.80
2013,09,29,17,32,27.40
2013,09,29,17,33,25.70
2013,09,29,17,34,25.70
2013,09,29,17,35,9.60
2013,09,29,17,36,25.70
2013,09,29,17,37,17.70
2013,09,29,17,38,19.30
2013,09,29,17,39,35.40
2013,09,29,17,40,25.70
2013,09,29,17,41,27.40
2013,09,29,17,42,38.60
2013,09,29,17,43,33.80
2013,09,29,17,44,25.70
2013,09,29,17,45,25.70
2013,09,29,17,46,20.90
2013,09,29,17,47,32.20
2013,09,29,17,48,33.80
2013,09,29,17,49,20.90
2013,09,29,17,50,29.00
2013,09,29,17,51,25.70
2013,09,29,17,52,35.40
2013,09,29,17,53,30.60
2013,09,29,17,54,25.70
2013,09,29,17,55,22.50
2013,09,29,17,56,25.70
2013,09,29,17,57,27.40
2013,09,29,17,58,32.20
2013,09,29,17,59,48.30
2013,09,29,18,00,33.80
2013,09,29,18,01,27.40
2013,09,29,18,02,20.90
2013,09,29,18,03,22.50
2013,09,29,18,04,19.30
2013,09,29,18,05,29.00
2013,09,29,18,06,33.80
2013,09,29,18,07,35.40
2013,09,29,18,08,27.40
2013,09,29,18,09,37.00
2013,09,29,18,10,30.60
2013,09,29,18,11,29.00
2013,09,29,18,12,27.40
2013,09,29,18,13,24.20
2013,09,29,18,14,27.40
2013,09,29,18,15,30.60
2013,09,29,18,16,33.80
2013,09,29,18,17,35.40
2013,09,29,18,18,33.80
2013,09,29,18,19,35.40
2013,09,29,18,20,35.40
2013,09,29,18,21,56.30
2013,09,29,18,22,30.60
2013,09,29,18,23,17.70
2013,09,29,18,24,22.50
2013,09,29,18,25,20.90
2013,09,29,18,26,22.50
2013,09,29,18,27,32.20
2013,09,29,18,28,59.50
2013,09,29,18,29,40.20
2013,09,29,18,30,29.00
2013,09,29,18,31,29.00
2013,09,29,18,32,35.40
2013,09,29,18,33,43.50
2013,09,29,18,34,30.60
2013,09,29,18,35,33.80
2013,09,29,18,36,20.90
2013,09,29,18,37,25.70
2013,09,29,18,38,37.00
2013,09,29,18,39,37.00
2013,09,29,18,40,30.60
2013,09,29,18,41,25.70
2013,09,29,18,42,19.30
2013,09,29,18,43,19.30
2013,09,29,18,44,35.40
2013,09,29,18,45,24.20
2013,09,29,18,46,27.40
2013,09,29,18,47,29.00
2013,09,29,18,48,27.40
2013,09,29,18,49,37.00
2013,09,29,18,50,43.50
2013,09,29,18,51,45.10
2013,09,29,18,52,32.20
2013,09,29,18,53,24.20
2013,09,29,18,54,35.40
2013,09,29,18,55,40.20
2013,09,29,18,56,32.20
2013,09,29,18,57,32.20
2013,09,29,18,58,43.50
2013,09,29,18,59,51.50
2013,09,29,19,00,27.40
2013,09,29,19,01,25.70
2013,09,29,19,02,24.20
2013,09,29,19,03,32.20
2013,09,29,19,04,32.20
2013,09,29,19,05,51.50
2013,09,29,19,06,49.90
2013,09,29,19,07,32.20
2013,09,29,19,08,43.50
2013,09,29,19,09,30.60
2013,09,29,19,10,48.30
2013,09,29,19,11,35.40
2013,09,29,19,12,33.80
2013,09,29,19,13,35.40
2013,09,29,19,14,37.00
2013,09,29,19,15,27.40
2013,09,29,19,16,20.90
2013,09,29,19,17,22.50
2013,09,29,19,18,27.40
2013,09,29,19,19,25.70
2013,09,29,19,20,32.20
2013,09,29,19,21,29.00
2013,09,29,19,22,32.20
2013,09,29,19,23,32.20
2013,09,29,19,24,17.70
2013,09,29,19,25,33.80
2013,09,29,19,26,30.60
2013,09,29,19,27,32.20